Check out our new BloomSky Weather System.

Active alerts


No alerts


Thunder radar  blitzortung!


Rain radar more information rain snow radar


Visit our other weather sites:

Template documentation
and downloads

And another site



Weather Underground History page Text

Daily Summary for May 7, 2017 Units:  Metric    English   Both
« Previous Day
Next Day »
Daily Weekly Monthly Yearly Custom
  High: Low: Average:
Temperature: 29.3 °C 14.4 °C 22.7 °C
Dew Point: 18.4 °C 13 °C 15.3 °C
Humidity: 96 % 43 % 66 %
Wind Speed: 16.1 km/h 0 km/h 4 km/h
Wind Gust: 22.5 km/h - -
Wind:- - SE
Pressure: 1016.8 hPa 1013.4 hPa -
Precipitation: 0 mm    
Historical Graphs
 
 
Tabular Data for May 7, 2017
Time Temperature Dew Point Pressure Wind Wind Speed Wind Gust Humidity Rainfall Rate (Hourly)
00:03 20.9 °C 15 °C 1013.8 hPa South 1.6 km/h 8 km/h 69 % 0 mm
00:08 20.9 °C 15 °C 1013.8 hPa SSW 3.2 km/h 8 km/h 69 % 0 mm
00:13 20.8 °C 15.1 °C 1013.8 hPa SSW 3.2 km/h 8 km/h 70 % 0 mm
00:18 20.8 °C 15.1 °C 1013.8 hPa South 4.8 km/h 4.8 km/h 70 % 0 mm
00:23 20.7 °C 15.3 °C 1013.8 hPa SSE 3.2 km/h 6.4 km/h 71 % 0 mm
00:28 20.6 °C 15.2 °C 1013.8 hPa South 3.2 km/h 6.4 km/h 71 % 0 mm
00:33 20.6 °C 15.4 °C 1013.8 hPa South 3.2 km/h 6.4 km/h 72 % 0 mm
00:38 20.5 °C 15.3 °C 1013.8 hPa SSW 3.2 km/h 6.4 km/h 72 % 0 mm
00:43 20.4 °C 15.2 °C 1013.8 hPa Calm   6.4 km/h 72 % 0 mm
00:48 20.3 °C 15.3 °C 1013.8 hPa SSW 1.6 km/h 6.4 km/h 73 % 0 mm
00:53 20.2 °C 15.2 °C 1013.8 hPa SSW 1.6 km/h 6.4 km/h 73 % 0 mm
00:58 20.1 °C 15.3 °C 1013.8 hPa South 1.6 km/h 3.2 km/h 74 % 0 mm
01:04 20 °C 15.2 °C 1013.8 hPa South 1.6 km/h 3.2 km/h 74 % 0 mm
01:09 19.9 °C 15.3 °C 1013.8 hPa Calm   3.2 km/h 75 % 0 mm
01:14 19.8 °C 15.2 °C 1013.8 hPa Calm   3.2 km/h 75 % 0 mm
01:19 19.6 °C 15 °C 1013.8 hPa Calm   3.2 km/h 75 % 0 mm
01:24 19.5 °C 15.2 °C 1013.8 hPa SSW 1.6 km/h 3.2 km/h 76 % 0 mm
01:29 19.4 °C 15.3 °C 1013.8 hPa Calm   1.6 km/h 77 % 0 mm
01:34 19.3 °C 15.2 °C 1013.8 hPa Calm   3.2 km/h 77 % 0 mm
01:39 19.1 °C 15 °C 1013.8 hPa Calm   3.2 km/h 77 % 0 mm
01:44 18.8 °C 14.7 °C 1013.8 hPa Calm   3.2 km/h 77 % 0 mm
01:49 18.4 °C 14.5 °C 1013.8 hPa Calm   1.6 km/h 78 % 0 mm
01:54 18.2 °C 14.5 °C 1013.8 hPa Calm     79 % 0 mm
01:59 18.1 °C 14.8 °C 1013.8 hPa Calm     81 % 0 mm
02:04 18 °C 15.1 °C 1013.8 hPa Calm     83 % 0 mm
02:09 17.9 °C 15 °C 1013.8 hPa Calm     83 % 0 mm
02:14 17.8 °C 14.9 °C 1013.4 hPa Calm     83 % 0 mm
02:19 17.6 °C 14.7 °C 1013.8 hPa Calm     83 % 0 mm
02:24 17.5 °C 14.8 °C 1013.4 hPa Calm     84 % 0 mm
02:29 17.4 °C 14.9 °C 1013.4 hPa Calm     85 % 0 mm
02:34 17.4 °C 14.9 °C 1013.4 hPa Calm     85 % 0 mm
02:39 17.2 °C 14.7 °C 1013.4 hPa Calm     85 % 0 mm
02:44 17.1 °C 14.7 °C 1013.4 hPa Calm     86 % 0 mm
02:49 17 °C 14.6 °C 1013.4 hPa Calm     86 % 0 mm
02:54 16.9 °C 14.5 °C 1013.4 hPa Calm     86 % 0 mm
02:59 16.7 °C 14.5 °C 1013.4 hPa Calm     87 % 0 mm
03:04 16.6 °C 14.6 °C 1013.4 hPa Calm     88 % 0 mm
03:09 16.6 °C 14.6 °C 1013.4 hPa Calm     88 % 0 mm
03:14 16.6 °C 14.8 °C 1013.8 hPa Calm     89 % 0 mm
03:19 16.5 °C 14.7 °C 1013.4 hPa Calm     89 % 0 mm
03:24 16.4 °C 14.6 °C 1013.8 hPa Calm     89 % 0 mm
03:29 16.3 °C 14.5 °C 1013.8 hPa Calm     89 % 0 mm
03:34 16.2 °C 14.4 °C 1013.8 hPa Calm     89 % 0 mm
03:39 16.1 °C 14.5 °C 1013.8 hPa Calm     90 % 0 mm
03:44 16.1 °C 14.5 °C 1013.8 hPa Calm     90 % 0 mm
03:49 16.1 °C 14.5 °C 1013.8 hPa Calm     90 % 0 mm
03:54 16.1 °C 14.5 °C 1013.8 hPa Calm     90 % 0 mm
03:59 16.1 °C 14.5 °C 1013.4 hPa Calm     90 % 0 mm
04:04 16 °C 14.5 °C 1013.8 hPa Calm     91 % 0 mm
04:09 15.9 °C 14.4 °C 1013.8 hPa Calm     91 % 0 mm
04:14 15.8 °C 14.3 °C 1013.8 hPa Calm     91 % 0 mm
04:19 15.8 °C 14.3 °C 1013.8 hPa Calm     91 % 0 mm
04:24 15.7 °C 14.2 °C 1013.8 hPa Calm     91 % 0 mm
04:29 15.7 °C 14.4 °C 1013.8 hPa Calm     92 % 0 mm
04:34 15.6 °C 14.3 °C 1013.8 hPa Calm     92 % 0 mm
04:39 15.6 °C 14.3 °C 1013.8 hPa Calm     92 % 0 mm
04:44 15.5 °C 14.2 °C 1013.8 hPa Calm     92 % 0 mm
04:49 15.5 °C 14.2 °C 1013.8 hPa Calm     92 % 0 mm
04:54 15.3 °C 14 °C 1013.8 hPa Calm     92 % 0 mm
04:59 15.2 °C 13.9 °C 1013.8 hPa Calm     92 % 0 mm
05:04 15.2 °C 14.1 °C 1013.8 hPa Calm     93 % 0 mm
05:09 15.2 °C 14.1 °C 1013.8 hPa Calm     93 % 0 mm
05:14 15.2 °C 14.1 °C 1013.8 hPa Calm     93 % 0 mm
05:19 15.2 °C 14.1 °C 1013.8 hPa Calm     93 % 0 mm
05:24 15.1 °C 14 °C 1013.8 hPa Calm     93 % 0 mm
05:29 15.1 °C 14 °C 1013.8 hPa Calm     93 % 0 mm
05:35 15.1 °C 14.1 °C 1013.8 hPa Calm     94 % 0 mm
05:40 15.1 °C 14.1 °C 1014.1 hPa Calm     94 % 0 mm
05:45 14.9 °C 13.8 °C 1013.8 hPa Calm     93 % 0 mm
05:50 14.9 °C 13.9 °C 1013.8 hPa Calm     94 % 0 mm
05:55 14.9 °C 13.9 °C 1013.8 hPa Calm     94 % 0 mm
06:00 14.9 °C 13.9 °C 1014.1 hPa Calm     94 % 0 mm
06:05 14.8 °C 13.8 °C 1014.1 hPa Calm     94 % 0 mm
06:10 14.8 °C 13.8 °C 1014.1 hPa Calm     94 % 0 mm
06:15 14.7 °C 13.7 °C 1014.4 hPa Calm     94 % 0 mm
06:20 14.6 °C 13.6 °C 1014.4 hPa Calm     94 % 0 mm
06:25 14.6 °C 13.6 °C 1014.4 hPa Calm     94 % 0 mm
06:30 14.4 °C 13.4 °C 1014.4 hPa Calm     94 % 0 mm
06:35 14.4 °C 13.6 °C 1014.4 hPa Calm     95 % 0 mm
06:40 14.4 °C 13.6 °C 1014.4 hPa Calm     95 % 0 mm
06:45 14.4 °C 13.6 °C 1014.8 hPa Calm     95 % 0 mm
06:50 14.4 °C 13.6 °C 1014.8 hPa Calm     95 % 0 mm
06:55 14.4 °C 13.6 °C 1014.8 hPa Calm     95 % 0 mm
07:00 14.4 °C 13.6 °C 1014.8 hPa Calm     95 % 0 mm
07:05 14.5 °C 13.7 °C 1014.8 hPa Calm     95 % 0 mm
07:10 14.6 °C 13.8 °C 1014.8 hPa Calm     95 % 0 mm
07:15 14.8 °C 14.2 °C 1015.1 hPa Calm     96 % 0 mm
07:20 15.4 °C 14.8 °C 1015.1 hPa Calm     96 % 0 mm
07:25 16.1 °C 15.5 °C 1015.1 hPa Calm     96 % 0 mm
07:30 16.7 °C 16.1 °C 1015.5 hPa Calm     96 % 0 mm
07:35 17.2 °C 16.4 °C 1015.5 hPa Calm     95 % 0 mm
07:40 17.7 °C 16.9 °C 1015.5 hPa Calm     95 % 0 mm
07:45 18.3 °C 17.3 °C 1015.5 hPa Calm     94 % 0 mm
07:50 18.9 °C 17.7 °C 1015.5 hPa Calm     93 % 0 mm
07:55 19.5 °C 18.2 °C 1015.5 hPa Calm     92 % 0 mm
08:00 20.1 °C 18.4 °C 1015.8 hPa Calm     90 % 0 mm
08:05 20.6 °C 18.4 °C 1015.8 hPa Calm   1.6 km/h 87 % 0 mm
08:10 20.7 °C 18.1 °C 1015.8 hPa Calm   3.2 km/h 85 % 0 mm
08:15 21.2 °C 18 °C 1015.8 hPa Calm   3.2 km/h 82 % 0 mm
08:16 21.3 °C 18.1 °C 1015.8 hPa Calm   3.2 km/h 82 % 0 mm
08:21 21.6 °C 18 °C 1016.1 hPa ESE 1.6 km/h 3.2 km/h 80 % 0 mm
08:26 21.8 °C 17.8 °C 1016.1 hPa ESE 3.2 km/h 4.8 km/h 78 % 0 mm
08:31 21.9 °C 17.7 °C 1016.1 hPa ESE 1.6 km/h 4.8 km/h 77 % 0 mm
08:36 22.2 °C 17.8 °C 1016.1 hPa ESE 3.2 km/h 4.8 km/h 76 % 0 mm
08:41 22.3 °C 17.7 °C 1016.1 hPa East 3.2 km/h 4.8 km/h 75 % 0 mm
08:46 22.6 °C 18.2 °C 1016.1 hPa ESE 4.8 km/h 6.4 km/h 76 % 0 mm
08:51 22.9 °C 18 °C 1016.1 hPa SE 1.6 km/h 6.4 km/h 74 % 0 mm
08:56 23.3 °C 18.2 °C 1016.1 hPa ESE 9.7 km/h 9.7 km/h 73 % 0 mm
09:01 23.3 °C 18 °C 1016.1 hPa SSE 4.8 km/h 9.7 km/h 72 % 0 mm
09:06 23.4 °C 17.8 °C 1016.1 hPa SSE 3.2 km/h 9.7 km/h 71 % 0 mm
09:07 23.4 °C 18.1 °C 1016.1 hPa SE 4.8 km/h 9.7 km/h 72 % 0 mm
09:12 23.7 °C 18.1 °C 1016.5 hPa SSW 4.8 km/h 9.7 km/h 71 % 0 mm
09:17 23.9 °C 18.1 °C 1016.5 hPa SW 3.2 km/h 9.7 km/h 70 % 0 mm
09:19 24 °C 18 °C 1016.5 hPa SW 1.6 km/h 9.7 km/h 69 % 0 mm
09:24 24.2 °C 18.2 °C 1016.5 hPa SSE 4.8 km/h 12.9 km/h 69 % 0 mm
09:29 24.5 °C 18.2 °C 1016.5 hPa SSW 4.8 km/h 12.9 km/h 68 % 0 mm
09:34 24.6 °C 18.3 °C 1016.5 hPa SSW 3.2 km/h 12.9 km/h 68 % 0 mm
09:39 24.9 °C 18.1 °C 1016.5 hPa South 6.4 km/h 12.9 km/h 66 % 0 mm
09:44 25.1 °C 18.1 °C 1016.5 hPa WSW 3.2 km/h 12.9 km/h 65 % 0 mm
09:49 25.3 °C 18.2 °C 1016.5 hPa SW 1.6 km/h 11.3 km/h 65 % 0 mm
09:54 25.4 °C 17.6 °C 1016.5 hPa ESE 4.8 km/h 12.9 km/h 62 % 0 mm
09:59 25.5 °C 17.7 °C 1016.5 hPa South 4.8 km/h 12.9 km/h 62 % 0 mm
10:04 25.7 °C 17.4 °C 1016.5 hPa SW 4.8 km/h 12.9 km/h 60 % 0 mm
10:09 25.8 °C 17.4 °C 1016.5 hPa SSE 4.8 km/h 16.1 km/h 60 % 0 mm
10:14 25.9 °C 17.5 °C 1016.5 hPa WSW 1.6 km/h 16.1 km/h 60 % 0 mm
10:19 26.3 °C 17.9 °C 1016.5 hPa ESE 6.4 km/h 16.1 km/h 60 % 0 mm
10:24 26.3 °C 16.8 °C 1016.5 hPa South 4.8 km/h 12.9 km/h 56 % 0 mm
10:29 26.3 °C 16.5 °C 1016.5 hPa SSE 6.4 km/h 12.9 km/h 55 % 0 mm
10:34 26.3 °C 16.8 °C 1016.5 hPa South 6.4 km/h 12.9 km/h 56 % 0 mm
10:39 26.4 °C 16.6 °C 1016.5 hPa SSW 8 km/h 14.5 km/h 55 % 0 mm
10:44 26.4 °C 16.6 °C 1016.8 hPa SE 8 km/h 14.5 km/h 55 % 0 mm
10:49 26.7 °C 16.3 °C 1016.5 hPa ENE 4.8 km/h 14.5 km/h 53 % 0 mm
10:54 26.6 °C 16.2 °C 1016.5 hPa SSE 9.7 km/h 14.5 km/h 53 % 0 mm
10:59 26.6 °C 15.6 °C 1016.8 hPa SSW 3.2 km/h 14.5 km/h 51 % 0 mm
11:04 26.6 °C 15.9 °C 1016.5 hPa SSE 9.7 km/h 16.1 km/h 52 % 0 mm
11:09 26.7 °C 15.7 °C 1016.5 hPa ESE 4.8 km/h 16.1 km/h 51 % 0 mm
11:14 26.7 °C 15.4 °C 1016.5 hPa South 8 km/h 16.1 km/h 50 % 0 mm
11:19 26.9 °C 16.5 °C 1016.5 hPa Calm   20.9 km/h 53 % 0 mm
11:24 27.5 °C 16.5 °C 1016.5 hPa SSE 4.8 km/h 20.9 km/h 51 % 0 mm
11:26 27.6 °C 16.9 °C 1016.5 hPa SSE 8 km/h 20.9 km/h 52 % 0 mm
11:31 27.5 °C 16.1 °C 1016.5 hPa South 6.4 km/h 14.5 km/h 50 % 0 mm
11:36 27.4 °C 16.7 °C 1016.5 hPa East 6.4 km/h 14.5 km/h 52 % 0 mm
11:41 27.3 °C 16.6 °C 1016.5 hPa SE 4.8 km/h 14.5 km/h 52 % 0 mm
11:46 27.4 °C 16.1 °C 1016.5 hPa SSE 8 km/h 17.7 km/h 50 % 0 mm
11:51 27.6 °C 16.2 °C 1016.5 hPa ESE 14.5 km/h 17.7 km/h 50 % 0 mm
11:56 27.4 °C 16.1 °C 1016.5 hPa SSW 4.8 km/h 19.3 km/h 50 % 0 mm
12:01 27 °C 16.3 °C 1016.5 hPa SE 8 km/h 19.3 km/h 52 % 0 mm
12:06 26.9 °C 16.8 °C 1016.1 hPa South 6.4 km/h 19.3 km/h 54 % 0 mm
12:11 26.9 °C 16.2 °C 1016.5 hPa SSW 6.4 km/h 16.1 km/h 52 % 0 mm
12:16 27 °C 16.6 °C 1016.1 hPa SSE 9.7 km/h 12.9 km/h 53 % 0 mm
12:21 27.1 °C 16.4 °C 1016.1 hPa South 6.4 km/h 12.9 km/h 52 % 0 mm
12:26 27.3 °C 16.6 °C 1016.1 hPa ESE 14.5 km/h 19.3 km/h 52 % 0 mm
12:31 27.2 °C 15.9 °C 1015.8 hPa SE 14.5 km/h 20.9 km/h 50 % 0 mm
12:36 27.2 °C 16.2 °C 1015.8 hPa East 4.8 km/h 20.9 km/h 51 % 0 mm
12:41 27.3 °C 16 °C 1015.8 hPa SE 9.7 km/h 20.9 km/h 50 % 0 mm
12:46 27.4 °C 16.1 °C 1015.8 hPa SE 12.9 km/h 20.9 km/h 50 % 0 mm
12:51 27.4 °C 15.7 °C 1015.8 hPa SE 9.7 km/h 20.9 km/h 49 % 0 mm
12:56 27.5 °C 15.8 °C 1015.8 hPa West 1.6 km/h 20.9 km/h 49 % 0 mm
13:01 27.7 °C 16.3 °C 1015.5 hPa SSE 11.3 km/h 20.9 km/h 50 % 0 mm
13:06 27.7 °C 16 °C 1015.5 hPa East 4.8 km/h 19.3 km/h 49 % 0 mm
13:11 27.9 °C 16.2 °C 1015.5 hPa SE 6.4 km/h 20.9 km/h 49 % 0 mm
13:16 28.2 °C 16.1 °C 1015.5 hPa SE 11.3 km/h 20.9 km/h 48 % 0 mm
13:21 28.2 °C 16.8 °C 1015.5 hPa South 6.4 km/h 20.9 km/h 50 % 0 mm
13:26 28.3 °C 16.2 °C 1015.5 hPa SSE 6.4 km/h 14.5 km/h 48 % 0 mm
13:31 28.1 °C 15.7 °C 1015.5 hPa ESE 12.9 km/h 14.5 km/h 47 % 0 mm
13:37 28.3 °C 15.9 °C 1015.5 hPa SE 9.7 km/h 14.5 km/h 47 % 0 mm
13:42 28.7 °C 16.3 °C 1015.5 hPa SSE 4.8 km/h 19.3 km/h 47 % 0 mm
13:47 28.7 °C 16.3 °C 1015.1 hPa SE 11.3 km/h 20.9 km/h 47 % 0 mm
13:52 28.7 °C 15.9 °C 1015.1 hPa ENE 8 km/h 20.9 km/h 46 % 0 mm
13:57 28.4 °C 16 °C 1015.1 hPa SSE 4.8 km/h 20.9 km/h 47 % 0 mm
14:02 28.5 °C 16.1 °C 1015.1 hPa ESE 6.4 km/h 19.3 km/h 47 % 0 mm
14:07 28.6 °C 16.2 °C 1015.1 hPa SSW 3.2 km/h 19.3 km/h 47 % 0 mm
14:12 28.3 °C 16.2 °C 1015.1 hPa ESE 3.2 km/h 19.3 km/h 48 % 0 mm
14:17 28.4 °C 15.7 °C 1014.8 hPa SSE 1.6 km/h 19.3 km/h 46 % 0 mm
14:22 28.4 °C 16.3 °C 1014.8 hPa SE 4.8 km/h 14.5 km/h 48 % 0 mm
14:27 28.8 °C 16 °C 1014.8 hPa ESE 8 km/h 14.5 km/h 46 % 0 mm
14:32 29.1 °C 16.3 °C 1014.8 hPa East 4.8 km/h 17.7 km/h 46 % 0 mm
14:37 29.3 °C 15.4 °C 1014.8 hPa SSW 9.7 km/h 20.9 km/h 43 % 0 mm
14:42 29.2 °C 15.7 °C 1014.8 hPa SE 4.8 km/h 20.9 km/h 44 % 0 mm
14:47 29.2 °C 16 °C 1014.8 hPa SE 4.8 km/h 20.9 km/h 45 % 0 mm
14:52 29.2 °C 16.4 °C 1014.4 hPa ENE 8 km/h 20.9 km/h 46 % 0 mm
14:57 29.2 °C 16.7 °C 1014.4 hPa East 4.8 km/h 16.1 km/h 47 % 0 mm
15:02 29.3 °C 16.1 °C 1014.4 hPa SE 11.3 km/h 19.3 km/h 45 % 0 mm
15:07 29.2 °C 16 °C 1014.4 hPa ESE 4.8 km/h 19.3 km/h 45 % 0 mm
15:12 29.2 °C 15.7 °C 1014.4 hPa Calm   19.3 km/h 44 % 0 mm
15:17 29.2 °C 15.7 °C 1014.4 hPa NNW 3.2 km/h 19.3 km/h 44 % 0 mm
15:22 29.1 °C 16 °C 1014.4 hPa ESE 8 km/h 19.3 km/h 45 % 0 mm
15:27 29.2 °C 15.7 °C 1014.1 hPa ESE 14.5 km/h 19.3 km/h 44 % 0 mm
15:32 29 °C 15.2 °C 1014.1 hPa South 11.3 km/h 22.5 km/h 43 % 0 mm
15:37 28.8 °C 15 °C 1014.1 hPa SSE 16.1 km/h 22.5 km/h 43 % 0 mm
15:42 28.8 °C 15 °C 1014.1 hPa ESE 3.2 km/h 22.5 km/h 43 % 0 mm
15:47 28.7 °C 14.9 °C 1014.1 hPa East 6.4 km/h 20.9 km/h 43 % 0 mm
15:52 28.8 °C 15.3 °C 1013.8 hPa ENE 11.3 km/h 20.9 km/h 44 % 0 mm
15:57 28.8 °C 15.3 °C 1013.8 hPa ENE 12.9 km/h 20.9 km/h 44 % 0 mm
16:02 28.6 °C 14.8 °C 1013.8 hPa ESE 8 km/h 20.9 km/h 43 % 0 mm
16:07 28.4 °C 15 °C 1013.8 hPa ENE 6.4 km/h 20.9 km/h 44 % 0 mm
16:12 28.5 °C 14.7 °C 1013.8 hPa South 1.6 km/h 20.9 km/h 43 % 0 mm
16:17 28.3 °C 14.9 °C 1013.8 hPa SE 6.4 km/h 17.7 km/h 44 % 0 mm
16:19 28.3 °C 14.5 °C 1013.8 hPa SSE 11.3 km/h 17.7 km/h 43 % 0 mm
16:24 28 °C 15 °C 1013.8 hPa NE 4.8 km/h 20.9 km/h 45 % 0 mm
16:29 28.1 °C 14.7 °C 1013.8 hPa SSE 9.7 km/h 20.9 km/h 44 % 0 mm
16:34 28.2 °C 14.8 °C 1013.8 hPa SSE 12.9 km/h 20.9 km/h 44 % 0 mm
16:39 28.4 °C 15.3 °C 1013.8 hPa SSE 6.4 km/h 20.9 km/h 45 % 0 mm
16:44 28.4 °C 14.6 °C 1013.8 hPa SSW 9.7 km/h 20.9 km/h 43 % 0 mm
16:49 28.2 °C 14.4 °C 1013.4 hPa ESE 9.7 km/h 22.5 km/h 43 % 0 mm
16:54 28.1 °C 14.7 °C 1013.4 hPa ENE 14.5 km/h 22.5 km/h 44 % 0 mm
16:59 28.2 °C 14.8 °C 1013.4 hPa SSE 6.4 km/h 22.5 km/h 44 % 0 mm
17:04 28.2 °C 14.4 °C 1013.4 hPa SW 4.8 km/h 19.3 km/h 43 % 0 mm
17:09 28.1 °C 14.3 °C 1013.4 hPa South 14.5 km/h 19.3 km/h 43 % 0 mm
17:14 27.9 °C 14.5 °C 1013.4 hPa SSW 8 km/h 20.9 km/h 44 % 0 mm
17:19 27.9 °C 14.2 °C 1013.4 hPa SE 8 km/h 20.9 km/h 43 % 0 mm
17:24 27.6 °C 14.2 °C 1013.4 hPa SE 8 km/h 20.9 km/h 44 % 0 mm
17:29 27.4 °C 14.1 °C 1013.4 hPa SSW 9.7 km/h 17.7 km/h 44 % 0 mm
17:34 27.5 °C 14.2 °C 1013.4 hPa South 6.4 km/h 20.9 km/h 44 % 0 mm
17:39 27.4 °C 14.4 °C 1013.4 hPa ESE 9.7 km/h 20.9 km/h 45 % 0 mm
17:44 27.3 °C 14 °C 1013.4 hPa East 3.2 km/h 20.9 km/h 44 % 0 mm
17:49 27.2 °C 14.2 °C 1013.4 hPa SE 3.2 km/h 17.7 km/h 45 % 0 mm
17:54 27.3 °C 14 °C 1013.4 hPa SSE 11.3 km/h 17.7 km/h 44 % 0 mm
17:59 27.2 °C 13.9 °C 1013.4 hPa SSE 9.7 km/h 17.7 km/h 44 % 0 mm
18:04 27.1 °C 13.4 °C 1013.4 hPa ESE 12.9 km/h 20.9 km/h 43 % 0 mm
18:09 26.9 °C 13.6 °C 1013.4 hPa SE 12.9 km/h 20.9 km/h 44 % 0 mm
18:14 26.7 °C 13.8 °C 1013.4 hPa NNE 4.8 km/h 20.9 km/h 45 % 0 mm
18:19 26.5 °C 13.3 °C 1013.4 hPa SSE 11.3 km/h 19.3 km/h 44 % 0 mm
18:24 26.6 °C 13.7 °C 1013.4 hPa ESE 4.8 km/h 19.3 km/h 45 % 0 mm
18:29 26.6 °C 14 °C 1013.4 hPa East 3.2 km/h 16.1 km/h 46 % 0 mm
18:34 26.8 °C 13.9 °C 1013.8 hPa SSE 3.2 km/h 16.1 km/h 45 % 0 mm
18:39 26.6 °C 14 °C 1013.4 hPa East 9.7 km/h 16.1 km/h 46 % 0 mm
18:44 26.3 °C 13.8 °C 1013.8 hPa NE 6.4 km/h 19.3 km/h 46 % 0 mm
18:49 26.1 °C 13.9 °C 1013.8 hPa ESE 6.4 km/h 19.3 km/h 47 % 0 mm
18:54 25.8 °C 13.3 °C 1013.8 hPa SE 6.4 km/h 19.3 km/h 46 % 0 mm
18:59 25.7 °C 13.5 °C 1013.8 hPa East 11.3 km/h 19.3 km/h 47 % 0 mm
19:04 25.7 °C 13.5 °C 1013.8 hPa East 11.3 km/h 19.3 km/h 47 % 0 mm
19:09 25.6 °C 13.5 °C 1013.8 hPa SSE 11.3 km/h 19.3 km/h 47 % 0 mm
19:14 25.4 °C 13.6 °C 1013.8 hPa ESE 4.8 km/h 17.7 km/h 48 % 0 mm
19:19 25.2 °C 13.4 °C 1013.8 hPa ESE 6.4 km/h 17.7 km/h 48 % 0 mm
19:24 25.1 °C 13.6 °C 1013.8 hPa ESE 11.3 km/h 19.3 km/h 49 % 0 mm
19:29 24.9 °C 13.5 °C 1013.8 hPa ESE 3.2 km/h 19.3 km/h 49 % 0 mm
19:34 24.8 °C 13 °C 1013.8 hPa ENE 16.1 km/h 19.3 km/h 48 % 0 mm
19:39 24.7 °C 13.3 °C 1013.8 hPa SE 6.4 km/h 16.1 km/h 49 % 0 mm
19:44 24.6 °C 13.2 °C 1013.8 hPa SE 3.2 km/h 16.1 km/h 49 % 0 mm
19:49 24.4 °C 13.3 °C 1013.8 hPa SE 8 km/h 16.1 km/h 50 % 0 mm
19:54 24.3 °C 13.2 °C 1013.8 hPa SE 4.8 km/h 16.1 km/h 50 % 0 mm
19:59 24.2 °C 13.4 °C 1013.8 hPa ESE 4.8 km/h 16.1 km/h 51 % 0 mm
20:05 24.1 °C 13.9 °C 1013.8 hPa ESE 4.8 km/h 11.3 km/h 53 % 0 mm
20:10 23.9 °C 14 °C 1013.8 hPa SE 4.8 km/h 11.3 km/h 54 % 0 mm
20:15 23.8 °C 14.2 °C 1014.1 hPa SE 6.4 km/h 12.9 km/h 55 % 0 mm
20:20 23.7 °C 14.4 °C 1013.8 hPa ESE 3.2 km/h 12.9 km/h 56 % 0 mm
20:25 23.6 °C 14.6 °C 1014.1 hPa SE 8 km/h 12.9 km/h 57 % 0 mm
20:30 23.4 °C 14.7 °C 1014.1 hPa ESE 3.2 km/h 12.9 km/h 58 % 0 mm
20:35 23.3 °C 14.8 °C 1014.1 hPa SE 8 km/h 12.9 km/h 59 % 0 mm
20:40 23.3 °C 14.8 °C 1014.1 hPa ESE 3.2 km/h 12.9 km/h 59 % 0 mm
20:45 23.2 °C 15 °C 1014.1 hPa ESE 3.2 km/h 11.3 km/h 60 % 0 mm
20:50 23.1 °C 14.9 °C 1014.1 hPa SE 4.8 km/h 14.5 km/h 60 % 0 mm
20:55 23 °C 15.1 °C 1014.1 hPa SE 6.4 km/h 14.5 km/h 61 % 0 mm
21:00 22.9 °C 15 °C 1014.1 hPa ESE 4.8 km/h 14.5 km/h 61 % 0 mm
21:01 22.9 °C 15 °C 1014.1 hPa SSE 3.2 km/h 14.5 km/h 61 % 0 mm
21:06 22.8 °C 15.1 °C 1014.1 hPa SE 6.4 km/h 9.7 km/h 62 % 0 mm
21:11 22.7 °C 15 °C 1014.1 hPa ESE 6.4 km/h 12.9 km/h 62 % 0 mm
21:16 22.7 °C 15 °C 1014.4 hPa SSE 4.8 km/h 12.9 km/h 62 % 0 mm
21:21 22.6 °C 15.2 °C 1014.4 hPa SE 1.6 km/h 12.9 km/h 63 % 0 mm
21:26 22.5 °C 15.1 °C 1014.4 hPa ESE 4.8 km/h 9.7 km/h 63 % 0 mm
21:31 22.4 °C 15 °C 1014.4 hPa ESE 4.8 km/h 9.7 km/h 63 % 0 mm
21:36 22.4 °C 15.3 °C 1014.4 hPa SE 4.8 km/h 9.7 km/h 64 % 0 mm
21:41 22.3 °C 15.2 °C 1014.4 hPa SE 3.2 km/h 9.7 km/h 64 % 0 mm
21:46 22.2 °C 15.3 °C 1014.4 hPa SE 6.4 km/h 9.7 km/h 65 % 0 mm
21:51 22.2 °C 15.3 °C 1014.8 hPa East 4.8 km/h 9.7 km/h 65 % 0 mm
21:56 22.1 °C 15.4 °C 1014.8 hPa ESE 4.8 km/h 11.3 km/h 66 % 0 mm
22:01 22.1 °C 15.4 °C 1014.8 hPa ESE 4.8 km/h 11.3 km/h 66 % 0 mm
22:06 22 °C 15.6 °C 1015.1 hPa SE 6.4 km/h 12.9 km/h 67 % 0 mm
22:11 22 °C 15.6 °C 1015.1 hPa East 6.4 km/h 12.9 km/h 67 % 0 mm
22:16 21.9 °C 15.5 °C 1015.1 hPa ESE 1.6 km/h 12.9 km/h 67 % 0 mm
22:21 21.9 °C 15.7 °C 1015.1 hPa SE 3.2 km/h 9.7 km/h 68 % 0 mm
22:26 21.9 °C 15.7 °C 1015.1 hPa SE 1.6 km/h 8 km/h 68 % 0 mm
22:31 21.7 °C 15.5 °C 1015.1 hPa SSE 1.6 km/h 8 km/h 68 % 0 mm
22:36 21.6 °C 15.7 °C 1015.1 hPa SE 3.2 km/h 6.4 km/h 69 % 0 mm
22:41 21.5 °C 15.6 °C 1015.1 hPa SSE 1.6 km/h 4.8 km/h 69 % 0 mm
22:46 21.4 °C 15.7 °C 1015.5 hPa SSE 1.6 km/h 4.8 km/h 70 % 0 mm
22:51 21.3 °C 15.6 °C 1015.5 hPa Calm   4.8 km/h 70 % 0 mm
22:56 21.2 °C 15.7 °C 1015.5 hPa SE 1.6 km/h 3.2 km/h 71 % 0 mm
23:01 21.1 °C 15.6 °C 1015.5 hPa Calm   3.2 km/h 71 % 0 mm
23:06 21.1 °C 15.9 °C 1015.5 hPa Calm   3.2 km/h 72 % 0 mm
23:11 20.9 °C 15.7 °C 1015.5 hPa Calm   3.2 km/h 72 % 0 mm
23:16 20.9 °C 15.9 °C 1015.5 hPa SE 1.6 km/h 4.8 km/h 73 % 0 mm
23:21 20.9 °C 15.9 °C 1015.5 hPa Calm   4.8 km/h 73 % 0 mm
23:26 20.9 °C 15.9 °C 1015.5 hPa ESE 1.6 km/h 4.8 km/h 73 % 0 mm
23:31 20.8 °C 15.8 °C 1015.5 hPa Calm   3.2 km/h 73 % 0 mm
23:36 20.6 °C 15.6 °C 1015.5 hPa Calm   3.2 km/h 73 % 0 mm
23:41 20.6 °C 16 °C 1015.5 hPa East 4.8 km/h 4.8 km/h 75 % 0 mm
23:46 20.6 °C 16 °C 1015.1 hPa ESE 1.6 km/h 4.8 km/h 75 % 0 mm
23:51 20.6 °C 16 °C 1015.5 hPa Calm   4.8 km/h 75 % 0 mm
23:56 20.5 °C 15.9 °C 1015.5 hPa Calm   4.8 km/h 75 % 0 mm
Spring, Texas: Villages of Bridgestone
Compliments of Weather Underground - 2.75 mb

Script developed by  Jim McMurry - jmcmurry@mwt.net Adapted for the template by  Wim van der Kuil - Leuven-Template.eu

You find our weather info also at:

UK Metoffice

WeatherCloud

Weather Underground

Mid-South Weather Network

AWEKAS

Citizen Weather Observer Program (CWOP)

HAMweather, WeatherForYou, PWS Weather

Equipment we use:

Weather-station
Davis Vantage Vue

Weather-program
Meteohub

Weather-server
Debian 7.9 x86 (Guest)

Provider
DreamHost

Davis Vantage Vue

Meteohub

Debian 7.9 x86 (Guest)

DreamHost